Regional Weather Roundup
Issued by NWS

Home | Current Version | Previous Version | Text Only | Print | Product List | Glossary On
Versions: 1 2 3 4 5 6 7 8 9 10 11 12 13 14 15 16 17 18 19 20 21 22 23 24 25 26 27 28 29 30 31 32 33 34 35 36 37 38 39 40 41 42 43 44 45 46 47 48 49 50
000
ASUS43 KLMK 241410
RWRKY
KENTUCKY REGIONAL WEATHER ROUNDUP
NATIONAL WEATHER SERVICE LOUISVILLE KY
900 AM EST TUE JAN 24 2017

NOTE "FAIR" INDICATES FEW OR NO CLOUDS BELOW 12,000 FEET
WITH NO SIGNIFICANT WEATHER AND/OR OBSTRUCTIONS TO VISIBILITY.

KYZ001>023-026-027-061>063-070>075-241500-
WESTERN AND SOUTH CENTRAL KENTUCKY

CITY           SKY/WX    TMP DP  RH WIND       PRES   REMARKS
PADUCAH        PTCLDY    39  32  76 E5        29.93R
HENDERSON      CLOUDY    41  32  70 NW3       29.94R
OWENSBORO      CLOUDY    40  34  79 CALM      29.95R
HOPKINSVILLE   CLOUDY    39  33  78 NW3       29.94R
BOWLING GREEN  CLOUDY    42  34  73 N7        29.94R
GLASGOW        CLOUDY    39  35  85 NW5       29.93S
$$

KYZ024-025-028>034-038-045-046-053-241500-
NORTH CENTRAL KENTUCKY

CITY           SKY/WX    TMP DP  RH WIND       PRES   REMARKS
LOUISVILLE/SDF CLOUDY    43  33  68 NW7       29.90R
LOUISVILLE/LOU CLOUDY    42  34  73 W7        29.90R
FORT KNOX      CLOUDY    40  34  78 NW8       29.89R WCI  34
$$

KYZ035>037-039>044-047>052-055>060-089>105-241500-
NORTHEAST KENTUCKY

CITY           SKY/WX    TMP DP  RH WIND       PRES   REMARKS
LEXINGTON      CLOUDY    40  37  89 W10       29.87R WCI  33
COVINGTON      CLOUDY    41  39  93 NW8       29.83R FOG
FRANKFORT      CLOUDY    40  36  86 W8        29.87R WCI  34
$$

KYZ054-064>069-076>088-106>120-241500-
SOUTHEAST KENTUCKY

CITY           SKY/WX    TMP DP  RH WIND       PRES   REMARKS
JACKSON        CLOUDY    40  38  93 VRB7      29.83R FOG
LONDON         CLOUDY    39  38  96 W10       29.87R WCI  32
SOMERSET       CLOUDY    37  37 100 W8        29.91R WCI  31
MIDDLESBORO    CLOUDY    41  37  87 CALM      29.87R
MONTICELLO     CLOUDY    39  37  92 W12       29.93R WCI  32
$$





USA.gov is the U.S. government's official web portal to all federal, state and local government web resources and services.